Starlink 32908

operational
NORAD ID: 63084 Int'l Des: 2025-037 Owner: SPXS Country: US Constellation: starlink
LEOCIRCULAR

About Starlink 32908

Description loading...

Live Position

Loading 3D Globe...

Upcoming Passes

Altitude History

Altitude vs Time

uPlot chart will show altitude changes over time

Two-Line Element Set

1 63084U 25037H 26049.40433139 .00001395 00000-0 12467-3 0 9997
2 63084 70.0015 43.0622 0003138 273.3223 86.7577 14.98333749 55573
Epoch: Feb 18, 2026 • Age: 21 hours

Current Status

Altitude 583.7 km
Velocity 7.57 km/s
Sub-Earth Point 60.54°N, 171.05°W
Launch Date Feb 23, 2025
Age 0.9 years
Type internet

Technical Details

Classification Payload
Mass 730.00 kg
Dry Mass 700.00 kg
Total Mass 730.00 kg
Length 0.30 m
Diameter 4.10 m
Span 29.00 m
Shape Box + pan
Manufacturer SPXS
Bus Type Starlink V2M
Phase Status In Orbit
Owner/State SPXS/US

Large Constellations

Loading constellations...